Hot Springs, VA

7:56 AM EST on December 17, 2017 (GMT -0500)
Ingalls

Weather History for KHSP - January, 2010

Change the Weather History Date:

Sunday, January 17, 2010

  Actual Average Record
Temperature  
Mean Temperature 37 °F -  
Max Temperature 42 °F 29 °F 53 °F (2017)
Min Temperature 32 °F 16 °F -14 °F (1997)
Degree Days  
Heating Degree Days 28    
Moisture  
Dew Point 31 °F    
Average Humidity 87    
Maximum Humidity 100    
Minimum Humidity 34    
Precipitation  
Precipitation 0.45 in - - ()
Sea Level Pressure  
Sea Level Pressure 29.79 in    
Wind  
Wind Speed 11 mph (East)    
Max Wind Speed 23 mph    
Max Gust Speed 37 mph    
Visibility 9 miles    
Events Rain    
Averages and records for this station are not official NWS values.
T = Trace of Precipitation, MM = Missing Value Source: NWS Daily Summary

Daily Weather History Graph

Daily Weather History Graph

Search for Another Location

Airport or City:

Trip Planner

Search our weather history database for the weather conditions in past years. The results will help you decide how hot, cold, wet, or windy it might be!

Date:

Astronomy

Jan. 17, 2010 Rise Set
Actual Time 7:33 AM EST 5:26 PM EST
Civil Twilight 7:04 AM EST 5:54 PM EST
Nautical Twilight 6:32 AM EST 6:26 PM EST
Astronomical Twilight 6:00 AM EST 6:58 PM EST
Moon 8:42 AM EST 7:53 PM EST
Length of Visible Light 10h 50m
Length of Day
9h 52m
Waxing Crescent, 5% of the Moon is Illuminated
Jan 17
Waxing Crescent
Jan 23
First Quarter
Jan 30
Full
Feb 5
Last Quarter
Feb 13
New

Hourly Weather History & Observations

Time (EST) Temp. Windchill Dew Point Humidity Pressure Visibility Wind Dir Wind Speed Gust Speed Precip Events Conditions
12:00 AM 42.8 °F 37.0 °F 15.8 °F 34% 30.07 in 10.0 mi SSE 10.4 mph - N/A   Overcast
12:20 AM 41.0 °F 33.9 °F 17.6 °F 39% 30.06 in - SSE 12.7 mph - N/A   Overcast
12:40 AM 41.0 °F 34.3 °F 15.8 °F 36% 30.07 in - SSE 11.5 mph - N/A   Overcast
1:00 AM 41.0 °F 34.3 °F 15.8 °F 36% 30.06 in - SSE 11.5 mph - N/A   Overcast
1:20 AM 41.0 °F 35.2 °F 17.6 °F 39% 30.05 in 10.0 mi South 9.2 mph - N/A   Overcast
1:40 AM 39.2 °F 33.0 °F 17.6 °F 42% 30.04 in 10.0 mi South 9.2 mph - N/A   Overcast
2:00 AM 39.2 °F 33.0 °F 17.6 °F 42% 30.03 in 10.0 mi South 9.2 mph - N/A   Overcast
2:20 AM 39.2 °F 33.0 °F 19.4 °F 45% 30.02 in 10.0 mi SSE 9.2 mph - N/A   Overcast
2:40 AM 39.2 °F 33.6 °F 21.2 °F 49% 30.01 in 10.0 mi SE 8.1 mph - N/A Rain Light Rain
3:00 AM 35.6 °F 28.6 °F 26.6 °F 70% 29.99 in 10.0 mi SSE 9.2 mph - N/A   Drizzle
3:20 AM 37.4 °F 30.8 °F 35.6 °F 93% 29.98 in 10.0 mi SE 9.2 mph - 0.01 in Rain Light Rain
3:40 AM 35.6 °F 28.6 °F 33.8 °F 93% 29.97 in 10.0 mi SE 9.2 mph - 0.01 in Rain Rain
4:00 AM 37.4 °F 30.3 °F 33.8 °F 87% 29.96 in 10.0 mi ESE 10.4 mph - N/A Rain Light Rain
4:20 AM 37.4 °F 30.3 °F 33.8 °F 87% 29.94 in 10.0 mi East 10.4 mph - 0.01 in   Drizzle
4:40 AM 35.6 °F 28.0 °F 33.8 °F 93% 29.92 in 10.0 mi East 10.4 mph - 0.01 in Rain Rain
5:00 AM 35.6 °F 27.5 °F 33.8 °F 93% 29.89 in 10.0 mi East 11.5 mph - 0.01 in   Drizzle
5:20 AM 35.6 °F 28.0 °F 33.8 °F 93% 29.88 in 10.0 mi East 10.4 mph - 0.01 in Rain Light Rain
5:40 AM 33.8 °F 24.8 °F 33.8 °F 100% 29.86 in 7.0 mi East 12.7 mph 17.3 mph 0.02 in Rain Light Rain
6:00 AM 33.8 °F 24.8 °F 33.8 °F 100% 29.84 in 7.0 mi East 12.7 mph 17.3 mph 0.01 in Rain Light Rain
6:20 AM 33.8 °F 24.8 °F 33.8 °F 100% 29.82 in 7.0 mi East 12.7 mph 18.4 mph 0.02 in Rain Light Rain
6:41 AM 33.8 °F 24.3 °F 33.8 °F 100% 29.80 in 4.0 mi East 13.8 mph 17.3 mph 0.04 in Rain Rain
7:01 AM 35.6 °F 26.2 °F 35.6 °F 100% 29.79 in - East 15.0 mph 24.2 mph 0.03 in   Unknown
7:20 AM 35.6 °F 26.2 °F 35.6 °F 100% 29.77 in - East 15.0 mph 21.9 mph 0.08 in   Overcast
7:40 AM 35.6 °F 27.1 °F 35.6 °F 100% 29.76 in - East 12.7 mph 21.9 mph 0.14 in   Overcast
8:00 AM 35.6 °F 26.2 °F 35.6 °F 100% 29.75 in - East 15.0 mph 20.7 mph 0.04 in   Overcast
8:20 AM 35.6 °F 25.2 °F 35.6 °F 100% 29.74 in - East 18.4 mph 24.2 mph 0.10 in   Overcast
8:40 AM 33.8 °F 24.8 °F 33.8 °F 100% 29.75 in - East 12.7 mph 21.9 mph 0.15 in   Overcast
9:00 AM 33.8 °F 24.8 °F 33.8 °F 100% 29.75 in - East 12.7 mph 23.0 mph 0.02 in   Overcast
9:20 AM 32.0 °F 19.2 °F 32.0 °F 100% 29.73 in - East 23.0 mph 33.4 mph 0.07 in   Overcast
9:41 AM 32.0 °F 20.8 °F 32.0 °F 100% 29.75 in - East 17.3 mph 25.3 mph 0.08 in   Overcast
10:01 AM 32.0 °F 21.6 °F 32.0 °F 100% 29.74 in - East 15.0 mph 23.0 mph N/A   Overcast
10:20 AM 32.0 °F 20.5 °F 32.0 °F 100% 29.71 in - East 18.4 mph 28.8 mph N/A   Overcast
10:40 AM 32.0 °F 20.8 °F 32.0 °F 100% 29.72 in - East 17.3 mph 21.9 mph N/A   Overcast
11:00 AM 32.0 °F 23.0 °F 32.0 °F 100% 29.72 in - East 11.5 mph 19.6 mph N/A   Overcast
11:20 AM - - - N/A% - - North - - N/A   Unknown
11:40 AM - - - N/A% - - North - - N/A   Unknown
12:00 PM - - - N/A% - - North - - N/A   Unknown
12:20 PM - - - N/A% - - North - - N/A   Unknown
12:40 PM - - - N/A% - - North - - N/A   Unknown
1:00 PM - - - N/A% - - North - - N/A   Unknown
1:20 PM - - - N/A% - - North - - N/A   Unknown
1:41 PM - - - N/A% - - North - - N/A   Unknown
2:05 PM - - - N/A% 29.61 in - East 10.4 mph - N/A   Unknown
2:22 PM - - - N/A% - - North - - N/A   Unknown
2:40 PM 33.8 °F 26.4 °F 33.8 °F 100% 29.60 in - East 9.2 mph - N/A   Unknown
3:00 PM 33.8 °F 25.3 °F 33.8 °F 100% 29.58 in - ENE 11.5 mph - N/A   Unknown
3:20 PM 33.8 °F 26.4 °F 33.8 °F 100% 29.58 in - ENE 9.2 mph 20.7 mph N/A   Unknown
3:40 PM 33.8 °F 27.0 °F 33.8 °F 100% 29.58 in - East 8.1 mph 26.5 mph N/A   Unknown
4:00 PM 35.6 °F 28.0 °F 35.6 °F 100% 29.58 in - ENE 10.4 mph 36.8 mph N/A   Unknown
4:20 PM 35.6 °F 27.5 °F 35.6 °F 100% 29.58 in - ENE 11.5 mph - N/A   Unknown
4:40 PM 33.8 °F 28.6 °F 33.8 °F 100% 29.59 in - East 5.8 mph - N/A   Overcast
5:00 PM 33.8 °F 27.0 °F 33.8 °F 100% 29.57 in - ENE 8.1 mph - N/A   Overcast
5:21 PM 33.8 °F 28.6 °F 33.8 °F 100% 29.58 in - ENE 5.8 mph - N/A   Overcast
5:42 PM 33.8 °F 30.8 °F 33.8 °F 100% 29.59 in - East 3.5 mph - N/A   Overcast
6:00 PM 33.8 °F - 33.8 °F 100% 29.59 in - Calm Calm - N/A   Overcast
6:20 PM 33.8 °F - 33.8 °F 100% 29.60 in - Calm Calm - N/A   Overcast
6:40 PM 33.8 °F 28.6 °F 33.8 °F 100% 29.59 in - West 5.8 mph - N/A   Unknown
7:00 PM 33.8 °F 26.4 °F 33.8 °F 100% 29.59 in - West 9.2 mph - N/A   Overcast
7:20 PM 33.8 °F 27.0 °F 33.8 °F 100% 29.59 in - West 8.1 mph - N/A   Overcast
7:41 PM 33.8 °F 26.4 °F 33.8 °F 100% 29.58 in - West 9.2 mph - N/A   Overcast
8:00 PM 33.8 °F 24.8 °F 33.8 °F 100% 29.57 in - WNW 12.7 mph - N/A   Overcast
8:20 PM 33.8 °F 25.3 °F 33.8 °F 100% 29.57 in - WNW 11.5 mph - N/A   Overcast
8:41 PM 33.8 °F 24.3 °F 33.8 °F 100% 29.57 in - West 13.8 mph - N/A   Overcast
9:00 PM 33.8 °F 24.3 °F 33.8 °F 100% 29.57 in - West 13.8 mph - N/A   Overcast
9:20 PM 35.6 °F 27.1 °F 35.6 °F 100% 29.58 in - West 12.7 mph - N/A   Overcast
9:40 PM 35.6 °F 26.2 °F 35.6 °F 100% 29.58 in - West 15.0 mph 18.4 mph N/A   Overcast
10:00 PM 35.6 °F 26.6 °F 35.6 °F 100% 29.60 in - West 13.8 mph - N/A   Overcast
10:21 PM 35.6 °F 26.6 °F 35.6 °F 100% 29.61 in - West 13.8 mph - N/A   Overcast
10:40 PM 35.6 °F 26.2 °F 35.6 °F 100% 29.61 in - West 15.0 mph - N/A   Overcast
11:00 PM 35.6 °F 25.9 °F 35.6 °F 100% 29.61 in - West 16.1 mph - N/A   Overcast
11:21 PM 35.6 °F 26.2 °F 35.6 °F 100% 29.62 in - West 15.0 mph - N/A   Overcast
11:40 PM 35.6 °F 25.9 °F 35.6 °F 100% 29.61 in - West 16.1 mph 21.9 mph N/A   Overcast